This is the latest recevied weather packets stored in our database for station/object W4KAB. If no packets are shown the sender has not sent any weather packets the latest 1 day(s).
| Time | Temp. | Humidity | Pressure | Rain* | Wind** | Luminosity | Snow |
|---|---|---|---|---|---|---|---|
| 1778031027 | 19.44° C | 57% | 1015.1 hPa | 0 mm | 0 m/s | 0 W/m² | - |
| 1778030723 | 18.89° C | 56% | 1015.2 hPa | 0 mm | 0 m/s | 0 W/m² | - |
| 1778030420 | 18.89° C | 56% | 1015.1 hPa | 0 mm | 0 m/s | 0 W/m² | - |
| 1778030128 | 19.44° C | 55% | 1015.2 hPa | 0 mm | 0 m/s | 0 W/m² | - |
| 1778029813 | 19.44° C | 55% | 1015.2 hPa | 0 mm | 0 m/s | 0 W/m² | - |
| 1778029508 | 18.89° C | 55% | 1014.9 hPa | 0 mm | 0 m/s | 0 W/m² | - |
| 1778029203 | 18.89° C | 55% | 1015 hPa | 0 mm | 0 m/s | 0 W/m² | - |
| 1778028901 | 18.89° C | 55% | 1015.2 hPa | 0 mm | 0 m/s | 0 W/m² | - |
| 1778028596 | 19.44° C | 55% | 1015.2 hPa | 0 mm | 0 m/s | 0 W/m² | - |
| 1778028294 | 19.44° C | 54% | 1015.3 hPa | 0 mm | 0 m/s | 0 W/m² | - |
| 1778027990 | 19.44° C | 54% | 1014.8 hPa | 0 mm | 0 m/s | 0 W/m² | - |
| 1778027687 | 19.44° C | 54% | 1014.9 hPa | 0 mm | 0 m/s | 0 W/m² | - |
| 1778027383 | 20° C | 53% | 1014.7 hPa | 0 mm | 0 m/s | 0 W/m² | - |
| 1778027079 | 20° C | 53% | 1014.8 hPa | 0 mm | 0 m/s | 0 W/m² | - |
| 1778026774 | 20.56° C | 52% | 1014.8 hPa | 0 mm | 0 m/s | 0 W/m² | - |
| 1778026472 | 21.11° C | 51% | 1014.8 hPa | 0 mm | 0 m/s | 0 W/m² | - |
| 1778026169 | 21.67° C | 49% | 1014.8 hPa | 0 mm | 0 m/s | 0 W/m² | - |
| 1778025867 | 22.22° C | 47% | 1014.8 hPa | 0 mm | 0 m/s | 1 W/m² | - |
| 1778025563 | 22.22° C | 45% | 1014.9 hPa | 0 mm | 0 m/s | 3 W/m² | - |
| 1778025262 | 22.22° C | 44% | 1015 hPa | 0 mm | 0 m/s | 3 W/m² | - |
| 1778024958 | 22.22° C | 44% | 1014.8 hPa | 0 mm | 0 m/s | 4 W/m² | - |
| 1778024656 | 22.78° C | 44% | 1014.8 hPa | 0 mm | 0 m/s | 4 W/m² | - |
| 1778024352 | 22.78° C | 44% | 1014.9 hPa | 0 mm | 0 m/s | 6 W/m² | - |
| 1778024050 | 22.78° C | 43% | 1014.8 hPa | 0 mm | 0 m/s | 6 W/m² | - |
| 1778023747 | 23.33° C | 42% | 1014.4 hPa | 0 mm | 1.34 m/s, 253° | 11 W/m² | - |
* Rain latest hour (hover to see other rain measurements)
** Current wind speed in m/s (hover to see current wind gust speed)